GFSNGP_925_temp_000.txt.gz
Temp
33 34 35 35 35 35 35 36 36 37 37 38 38 39 39 40 41 39 36 35 34 35 34 33 33 32 31 32 31 31 31 30 28 26 23 21 20 21 24 24 23 24 23 20
32 34 34 34 35 35 35 36 36 36 37 39 39 39 39 40 40 39 36 35 34 34 34 33 32 31 31 30 30 30 29 29 28 24 22 20 19 20 22 24 23 24 22 20
31 34 33 32 34 35 35 36 36 35 37 38 38 39 39 40 39 39 37 36 34 34 34 33 32 30 30 29 29 29 27 27 26 23 21 19 19 20 21 21 21 22 20 19
31 31 29 34 36 36 36 36 37 36 37 38 38 39 39 39 39 39 38 36 35 35 34 31 31 31 30 28 28 27 26 26 25 22 21 20 19 20 20 21 20 20 19 19
29 30 32 33 34 34 34 35 37 36 37 37 37 35 34 34 34 36 37 36 34 34 32 30 31 30 29 28 27 26 25 25 23 21 20 20 20 20 20 20 20 21 20 20
30 29 29 30 28 28 29 31 36 37 36 36 36 34 38 32 33 35 35 34 33 32 30 30 30 29 28 28 27 26 25 24 22 21 21 20 20 20 19 20 20 20 20 20
29 28 29 27 27 29 28 32 37 35 34 34 34 34 30 31 32 33 33 31 31 31 31 29 29 29 29 28 28 27 25 23 21 21 21 20 20 19 20 20 20 20 20 20
28 27 27 25 29 27 27 29 30 31 32 32 30 30 30 30 30 31 31 31 32 31 29 29 29 29 29 28 27 25 24 21 20 21 21 21 19 19 19 19 19 20 19 19
28 29 24 25 23 26 28 29 30 30 30 30 30 30 31 31 31 32 32 32 31 30 28 28 28 28 28 25 24 24 21 20 20 20 20 20 19 19 19 19 21 20 19 21
25 25 24 23 24 26 27 28 29 30 31 31 30 30 30 30 30 30 30 30 30 29 29 26 25 25 24 22 22 22 21 20 19 20 19 19 19 19 20 21 20 20 21 21
25 22 24 23 22 23 25 26 27 28 28 28 28 28 27 27 28 28 28 28 28 28 27 25 24 23 23 22 22 22 20 20 20 19 19 20 19 20 21 19 20 22 21 20
25 21 19 18 20 22 23 24 25 26 25 25 26 26 25 25 26 25 26 26 26 26 25 24 23 23 23 21 21 21 20 21 21 21 21 20 19 17 18 18 18 18 18 19
22 21 17 16 18 21 21 22 23 24 25 24 25 25 25 24 23 23 24 25 25 25 24 24 23 23 22 22 22 22 23 22 22 23 23 23 22 21 21 16 16 17 17 17
20 18 17 16 15 18 21 22 22 23 24 23 24 24 24 24 24 24 23 24 25 25 25 24 24 23 22 22 22 22 22 21 23 23 23 23 22 21 22 22 21 17 14 15
15 17 19 18 15 17 21 22 21 20 21 21 22 22 22 22 23 23 23 24 24 25 25 24 24 22 22 21 21 21 22 22 23 23 22 22 21 21 22 22 22 20 12 11
14 13 15 16 16 17 17 21 22 21 22 21 22 21 21 22 22 23 22 23 24 25 24 24 23 21 21 22 22 22 21 22 22 22 20 21 20 21 21 21 21 20 19 18
14 13 13 14 16 16 18 18 20 21 21 20 21 20 21 22 22 22 22 22 21 22 22 22 21 20 20 21 22 22 22 20 21 21 21 21 21 21 22 22 21 21 20 19
15 15 14 15 19 19 19 20 21 21 21 21 21 20 20 21 21 21 21 21 21 20 20 20 20 20 20 20 21 22 21 21 21 20 20 20 20 20 20 21 21 20 20 15
16 16 18 19 19 18 18 18 19 20 20 20 20 20 20 20 19 20 20 21 20 19 18 18 18 19 19 18 20 21 20 20 20 21 21 19 19 20 20 20 20 19 18 17
18 18 19 19 19 19 19 18 19 19 19 19 20 20 20 19 19 20 19 18 18 18 18 17 18 18 17 17 18 20 21 21 21 21 20 20 21 20 20 19 19 17 17 17
19 19 19 20 20 19 19 18 19 19 19 19 19 19 19 19 19 20 21 21 16 17 17 17 19 18 19 18 20 21 21 20 20 20 20 20 20 20 20 20 19 19 19 18
19 19 19 19 20 19 19 19 18 18 18 18 19 19 19 19 19 19 18 19 17 16 18 19 19 18 18 18 20 20 20 19 19 19 19 19 19 19 19 19 18 18 18 18
19 19 19 19 19 19 19 19 19 18 18 18 18 19 19 20 20 21 19 18 18 18 20 19 17 16 17 19 19 19 19 18 18 18 18 18 18 18 18 18 18 18 17 17
19 19 18 18 19 20 20 19 19 18 18 18 18 18 19 20 21 20 19 17 17 17 18 17 16 16 16 19 19 19 19 18 18 18 18 16 17 17 17 17 17 17 17 16
18 19 19 19 21 21 20 19 20 20 19 19 19 19 19 19 19 19 19 18 17 17 18 16 15 15 16 18 19 19 18 18 18 18 18 17 17 17 17 17 17 17 16 16
17 19 19 17 18 19 20 20 20 20 20 20 20 20 20 20 20 19 19 18 18 18 18 19 17 15 17 18 19 19 18 18 18 17 17 17 17 17 16 16 16 16 16 16
17 17 18 18 18 18 18 18 19 19 19 18 19 19 19 19 19 18 18 19 19 19 20 19 19 18 18 19 19 19 18 18 17 17 18 17 17 17 16 16 16 16 16 15

GFSNGP_925_temp_003.txt.gz
Temp
35 36 37 37 37 37 37 37 37 38 38 39 40 40 41 41 41 41 41 40 39 39 39 38 37 36 35 35 35 34 33 31 30 28 27 27 25 23 22 22 22 22 22 21
34 36 36 36 37 37 37 37 37 38 38 40 41 41 41 40 40 40 41 42 39 38 38 37 37 36 35 34 35 34 32 32 31 28 27 26 24 23 21 22 22 22 21 22
32 34 35 34 35 36 37 38 37 36 38 39 39 40 41 41 40 40 41 42 40 38 37 37 36 35 35 33 33 33 32 31 31 28 25 23 23 22 21 21 22 23 21 21
32 33 31 35 36 37 36 37 38 38 38 38 39 40 41 41 41 41 41 41 41 40 38 36 35 35 34 33 32 32 30 30 29 26 23 21 21 21 21 21 22 23 21 22
31 32 30 32 33 33 32 34 38 38 38 38 39 40 39 41 41 41 41 42 41 39 37 35 35 34 33 32 30 30 29 28 28 25 23 21 21 21 22 22 23 22 21 22
31 30 31 34 32 33 33 32 36 37 37 38 38 37 39 40 40 39 39 41 40 38 37 34 34 33 32 31 30 29 28 28 27 24 22 22 21 21 22 22 22 22 22 21
29 30 32 31 32 32 30 32 31 32 34 36 37 38 35 36 37 37 38 38 36 36 34 33 33 32 31 30 30 29 28 27 25 23 22 22 21 21 21 21 21 21 20 21
30 29 29 30 32 30 29 30 32 32 33 34 38 35 33 34 34 35 36 35 34 34 33 32 32 31 30 30 29 28 27 26 24 23 22 22 21 21 20 20 21 21 21 21
31 31 28 29 29 29 30 31 31 32 34 34 33 33 33 32 33 33 33 33 33 32 31 31 31 30 30 29 28 27 26 24 22 22 21 22 22 21 20 21 22 22 22 22
30 27 27 28 28 29 30 30 31 32 33 33 32 32 33 33 33 33 33 32 32 31 30 30 30 29 28 27 26 25 22 21 21 21 21 21 22 20 20 20 21 23 23 21
27 26 25 25 26 26 27 28 29 27 28 28 29 29 29 29 29 31 31 31 30 29 28 27 27 26 26 25 25 22 21 21 21 21 21 21 21 20 21 21 21 23 23 21
27 26 25 23 24 25 25 25 26 26 25 26 26 25 26 27 28 28 28 28 28 28 27 26 26 25 25 24 24 23 22 22 22 22 22 20 20 18 19 19 19 20 21 21
22 24 22 22 22 22 23 24 25 26 26 26 27 27 27 26 25 24 27 28 28 27 27 26 26 25 23 23 23 22 23 22 22 24 23 22 23 23 21 17 19 19 19 19
22 21 20 20 16 18 20 21 23 24 25 25 25 25 26 26 26 26 25 26 27 26 26 26 26 25 24 23 23 24 25 24 25 26 26 25 25 25 25 22 21 18 15 16
20 21 20 19 16 14 15 17 20 21 22 23 23 24 25 25 24 25 25 26 26 27 27 26 26 25 25 24 24 24 24 25 26 26 26 25 25 25 25 25 25 20 14 13
17 18 17 17 16 15 15 16 18 21 21 22 23 23 23 24 24 24 25 25 26 27 27 27 26 25 25 24 24 25 24 25 26 25 24 24 24 24 25 25 24 20 20 19
14 14 15 14 14 15 15 15 19 18 21 21 20 22 22 23 23 23 23 23 23 24 25 25 25 23 24 23 24 25 24 24 24 24 24 24 24 24 24 25 25 24 22 20
13 15 15 15 15 16 17 18 19 22 21 22 22 21 22 22 22 22 23 23 22 23 23 24 22 22 22 23 25 25 24 24 24 24 24 22 23 23 23 23 24 24 18 17
16 17 17 19 21 21 21 21 21 21 21 22 22 23 22 22 22 22 22 22 21 20 20 20 21 21 21 22 23 24 23 24 24 23 23 21 22 22 23 22 23 21 19 19
17 17 18 21 21 21 21 21 21 21 21 21 22 22 21 22 22 21 20 19 19 18 18 19 19 19 20 20 21 23 23 23 23 23 22 23 23 23 22 21 21 20 19 18
20 21 20 21 22 21 21 21 20 20 20 21 20 20 20 21 21 20 20 20 18 18 18 19 20 20 20 20 21 22 22 21 21 21 22 22 22 22 22 22 20 20 18 19
21 21 21 21 22 21 20 21 21 20 20 20 21 21 20 21 21 21 20 19 20 18 19 20 19 18 20 19 21 19 20 21 22 22 22 22 22 22 22 22 20 20 21 20
20 21 21 21 21 21 21 21 20 20 19 20 20 20 21 22 21 18 19 19 20 19 19 19 19 19 19 19 21 22 22 21 21 21 21 21 20 20 20 20 20 20 20 19
20 20 20 21 21 20 20 20 21 20 20 20 20 20 20 22 21 22 19 18 18 18 18 18 18 18 18 20 21 21 21 20 20 20 20 19 19 19 20 19 19 19 19 18
20 20 20 20 21 21 21 21 20 21 21 20 20 20 20 21 21 21 20 20 18 19 18 17 17 17 18 19 21 21 21 21 21 20 20 20 20 19 19 19 19 19 19 18
20 20 20 20 20 20 20 21 21 21 21 21 21 21 21 21 21 21 20 20 20 19 20 18 18 17 19 19 20 20 20 20 20 20 19 19 19 19 19 19 18 18 18 18
19 18 19 19 19 19 19 19 20 20 20 19 19 20 20 20 20 20 19 19 19 20 20 20 20 19 19 20 20 19 20 20 20 20 20 19 19 19 19 19 18 18 18 18

GFSNGP_925_temp_006.txt.gz
Temp
36 36 37 37 37 37 37 37 36 38 38 39 40 40 39 41 40 40 41 39 39 39 37 35 35 34 34 34 33 32 30 30 29 28 28 27 27 26 26 25 24 24 23 22
34 36 36 37 37 38 38 37 37 38 38 41 41 40 38 40 40 39 39 40 38 37 37 36 35 34 34 34 33 33 32 30 30 29 28 27 27 26 25 25 23 23 22 22
32 35 35 35 36 37 38 38 37 36 38 40 39 39 40 38 39 39 39 39 39 38 37 37 36 34 34 33 34 33 32 31 31 29 28 27 27 26 25 24 23 22 22 22
33 33 31 35 38 38 37 38 38 38 38 38 38 38 39 39 38 37 39 39 39 40 38 37 38 36 35 34 34 33 32 31 30 29 28 27 26 26 24 22 22 22 22 21
31 32 33 34 37 36 36 36 37 38 38 39 39 39 38 39 39 39 39 39 38 40 40 37 37 37 35 34 33 32 32 31 31 29 27 26 25 23 23 22 22 21 22 21
31 30 30 33 34 35 35 32 34 34 34 35 37 37 38 39 40 40 40 40 39 40 39 36 36 36 34 33 33 32 31 31 30 27 25 23 23 22 22 22 22 22 22 21
30 30 32 31 33 34 31 32 32 33 33 34 34 34 34 36 35 36 39 39 39 38 36 35 35 35 33 33 32 32 31 29 28 25 24 22 21 21 21 22 22 22 22 21
29 29 28 33 29 30 30 32 32 33 33 33 34 35 36 36 35 35 36 37 37 35 34 34 34 33 31 30 30 30 28 28 26 23 23 22 22 22 22 21 21 21 21 21
29 30 31 31 30 31 32 31 31 31 33 34 35 35 35 34 34 35 36 36 36 33 32 32 31 30 30 29 29 28 27 26 24 22 22 22 21 21 21 21 21 21 21 20
29 30 30 31 31 31 31 28 27 26 26 26 32 34 34 34 33 33 33 32 32 31 30 29 29 29 28 28 27 26 25 23 22 22 22 22 21 21 22 22 22 22 22 21
28 28 28 28 29 29 28 28 27 25 24 23 24 24 27 28 28 30 29 28 29 29 29 29 28 27 27 26 25 23 23 22 21 21 22 22 21 21 21 21 22 22 22 22
21 26 25 25 26 26 27 27 27 25 24 22 22 22 21 22 23 25 25 26 26 27 26 26 26 26 26 24 23 22 22 22 21 21 21 20 19 18 19 20 20 21 21 21
15 18 21 24 24 25 25 25 26 26 26 25 22 22 21 21 20 22 26 28 27 27 26 26 25 24 25 24 23 22 22 21 21 21 21 21 20 19 17 16 18 19 20 20
16 16 19 21 20 23 23 24 24 25 25 25 26 26 23 19 24 25 26 27 27 27 27 26 25 24 23 23 23 22 22 22 22 22 23 22 22 22 21 19 18 17 18 19
16 19 18 19 18 18 20 22 22 22 22 23 23 24 25 25 25 25 25 26 27 27 26 26 25 24 23 23 23 23 23 23 24 25 24 23 23 23 24 22 21 16 14 15
18 18 19 18 17 17 17 17 18 18 18 21 21 23 24 23 24 24 24 24 25 26 26 25 25 24 24 24 24 24 25 25 26 24 24 24 25 25 25 22 19 17 17 15
17 16 17 17 17 16 16 15 15 15 15 16 19 21 20 22 22 20 22 23 23 24 24 24 24 24 24 24 25 25 25 25 25 25 25 25 25 25 25 25 23 21 20 18
15 17 16 14 14 14 15 15 14 15 18 19 18 20 21 21 21 21 21 22 22 21 21 21 22 23 23 24 24 25 25 25 25 25 24 24 24 25 25 25 23 21 21 20
15 15 16 17 20 20 20 19 17 18 19 19 21 20 20 21 20 20 20 20 20 21 20 20 21 22 22 22 22 23 25 25 23 23 23 23 23 23 24 24 23 21 19 17
18 18 18 20 21 21 21 21 21 21 21 20 20 20 19 19 20 20 19 18 18 18 19 19 20 20 20 21 21 22 22 23 22 22 22 22 22 23 23 23 22 22 20 19
19 20 21 21 19 20 20 21 20 19 20 20 20 20 20 20 20 20 20 17 18 18 19 19 19 19 20 20 20 21 21 21 21 21 21 21 21 22 23 23 22 21 21 20
21 21 20 21 20 19 19 18 18 18 19 19 20 20 20 19 19 19 19 19 18 19 19 19 18 19 20 20 21 20 20 21 20 20 21 21 20 21 22 21 21 21 21 20
20 21 21 19 18 21 20 20 20 20 20 19 20 20 21 21 20 20 20 18 19 19 19 18 19 19 20 20 22 21 20 20 20 21 22 22 21 21 21 21 21 21 21 21
20 18 18 19 20 20 20 19 19 20 20 20 20 20 21 21 21 19 19 19 19 19 19 19 19 19 19 20 21 22 22 22 21 21 21 21 20 20 20 20 20 20 20 20
16 17 20 19 19 18 19 19 19 19 19 19 19 19 20 20 20 21 21 19 19 20 18 18 19 19 19 20 20 21 21 22 21 21 21 21 21 21 20 20 20 20 19 19
17 19 20 20 20 20 20 20 19 20 20 20 20 20 20 20 19 20 20 19 19 20 20 20 18 18 19 20 20 21 21 21 20 20 21 21 20 20 20 20 20 19 19 19
19 18 19 19 19 19 19 19 19 19 18 18 18 19 19 19 18 19 19 19 19 19 19 19 18 17 17 18 19 18 18 17 17 18 20 20 19 19 19 19 19 19 19 19

GFSNGP_925_temp_009.txt.gz
Temp
32 34 33 34 34 35 33 33 31 32 32 32 34 33 33 35 33 34 35 32 31 34 33 32 32 31 31 30 30 28 27 26 26 26 26 25 25 25 25 25 25 25 25 24
29 33 34 34 34 35 35 34 33 33 33 33 33 33 35 34 34 36 35 33 32 31 33 32 31 31 31 30 30 30 28 27 27 27 26 25 25 25 24 25 25 24 24 23
28 31 31 31 33 34 34 35 34 33 34 33 32 33 35 33 34 35 36 33 33 32 29 33 32 32 31 30 30 30 29 28 27 27 26 26 25 25 25 24 24 24 23 23
27 28 27 31 33 35 34 34 34 33 32 31 31 31 31 35 36 33 34 33 31 33 30 31 33 32 31 31 30 30 29 28 28 27 27 26 25 25 25 25 24 24 23 23
25 26 29 31 33 34 33 32 34 31 31 33 33 33 33 32 31 33 34 34 30 31 33 33 33 32 32 31 30 30 29 28 28 27 27 26 25 25 24 23 23 22 23 22
25 26 27 30 33 32 33 29 30 30 29 30 30 28 27 30 33 32 31 31 31 35 34 32 32 33 31 30 30 29 30 29 28 28 27 25 25 24 24 24 24 22 22 21
24 26 29 28 29 32 28 27 30 30 30 30 29 28 29 29 33 33 32 33 33 35 32 33 33 32 31 31 30 30 30 29 28 27 25 25 24 24 22 22 22 22 21 21
25 26 27 27 28 29 25 27 27 26 26 30 30 29 31 30 34 32 34 34 30 28 28 33 32 31 30 31 31 30 29 28 26 24 23 24 24 23 23 22 22 21 21 20
22 23 25 26 25 25 24 23 24 23 24 24 23 24 25 29 30 31 31 28 29 26 25 28 31 30 27 27 30 28 25 23 22 22 23 22 21 21 21 21 21 20 20 20
22 25 25 23 26 23 22 22 23 22 22 22 20 20 20 21 22 25 26 26 26 26 25 24 26 26 26 27 27 25 23 22 21 21 21 21 22 21 21 20 20 20 20 20
19 22 22 21 21 24 23 23 22 22 21 20 20 19 19 19 18 19 22 24 26 25 25 24 25 25 25 25 24 22 21 21 21 21 21 20 20 20 21 21 21 21 21 21
18 16 17 20 21 22 22 22 22 21 20 19 18 17 18 17 16 17 17 18 24 24 24 24 24 23 23 23 23 21 21 20 21 20 18 19 19 18 20 21 21 21 22 22
17 16 17 19 20 22 22 22 22 22 21 19 17 16 16 16 16 16 17 16 21 23 23 24 23 23 23 22 23 21 21 20 20 19 18 18 19 19 16 18 20 21 21 20
16 17 16 16 17 19 20 21 20 21 21 21 19 18 17 16 17 16 16 16 21 24 23 23 23 22 23 23 22 22 21 21 20 20 19 19 19 19 19 17 16 17 19 20
15 15 14 14 15 17 18 19 18 18 19 19 20 20 20 19 18 18 19 21 22 24 23 23 23 22 23 23 22 21 21 20 21 21 21 20 20 19 19 18 17 16 16 17
14 15 16 15 14 15 16 16 16 16 17 16 18 19 19 19 19 19 20 21 20 19 22 23 23 23 23 23 22 22 22 22 22 22 21 21 21 20 19 18 17 17 16 16
14 15 15 15 15 14 15 15 15 16 16 16 16 18 18 18 18 19 19 20 20 21 20 22 23 23 24 23 23 23 22 22 22 23 23 23 23 21 20 19 17 17 17 17
14 14 14 15 15 15 15 15 15 15 17 18 17 17 17 17 16 17 18 19 19 19 20 20 21 20 20 20 21 22 22 22 22 22 22 23 23 23 22 19 18 18 18 18
15 15 15 15 15 15 16 18 17 17 17 17 18 16 18 18 19 18 18 17 17 17 18 20 21 21 20 20 22 21 22 22 22 22 22 22 23 23 22 21 20 20 19 18
15 16 17 18 19 19 18 18 19 19 18 18 19 18 17 19 19 19 18 17 16 18 18 20 20 20 19 20 21 22 21 19 20 22 22 22 22 22 22 21 20 20 20 18
15 16 15 17 18 17 18 18 18 17 18 19 18 18 18 19 19 18 17 15 18 18 19 19 19 19 19 20 20 20 19 18 17 19 20 20 21 21 21 20 20 19 19 19
18 17 17 18 17 17 18 19 19 19 19 19 20 19 19 18 18 18 18 18 19 19 18 19 19 19 20 20 20 20 19 19 19 19 19 19 20 20 21 20 21 21 19 19
15 17 17 17 17 17 18 18 18 19 19 18 19 19 18 19 19 17 16 18 18 19 19 19 19 20 20 20 20 20 20 19 19 20 19 19 18 20 20 20 20 20 20 20
14 15 16 18 19 17 17 18 18 18 19 18 19 19 19 18 19 19 19 19 19 19 19 19 19 19 19 20 20 20 20 20 21 21 20 20 20 20 20 20 20 20 20 20
15 16 17 17 17 16 17 18 18 18 18 19 19 19 18 18 18 18 19 19 19 19 18 18 18 18 18 18 18 18 18 19 20 21 21 21 21 20 20 20 20 20 20 19
17 17 16 16 16 17 18 17 17 17 17 17 18 18 18 17 16 16 17 18 18 18 18 18 17 16 16 15 15 14 15 16 16 16 19 19 20 20 20 20 19 19 19 19
17 17 16 16 16 16 17 17 16 16 17 17 17 17 16 15 15 15 15 15 16 16 17 17 16 16 15 14 13 13 12 12 13 14 12 13 14 14 16 17 17 18 17 17

GFSNGP_925_temp_015.txt.gz
Temp
19 20 22 25 27 29 27 29 29 30 26 28 27 27 28 29 30 28 28 29 30 30 30 29 29 29 27 26 26 26 25 24 24 24 23 23 23 23 23 23 23 24 24 24
18 22 23 25 27 29 30 30 29 29 26 27 29 27 28 28 28 29 29 29 29 33 32 30 29 28 28 26 26 26 25 25 24 24 23 23 23 23 23 23 23 23 23 24
15 19 20 23 27 29 30 29 29 29 28 27 28 27 27 28 27 28 29 28 29 28 30 30 29 29 28 27 26 25 25 25 25 24 24 23 23 22 22 22 22 23 23 23
15 17 21 26 27 30 30 29 28 29 28 27 29 31 28 27 27 27 28 27 26 29 30 30 30 29 29 28 26 25 25 25 25 24 24 23 22 22 22 22 22 22 22 23
16 16 20 26 27 26 29 28 28 28 28 28 27 29 29 26 26 27 28 27 27 28 30 31 30 29 29 28 27 26 25 25 25 24 24 23 23 22 22 22 21 21 22 23
16 18 20 24 22 22 22 29 26 25 27 27 25 27 30 28 27 27 27 25 26 27 29 30 30 30 28 28 27 26 26 26 25 25 24 24 23 23 23 23 22 21 22 23
17 17 19 19 19 22 25 27 26 25 25 23 25 27 26 27 28 25 25 25 26 27 24 28 30 30 28 28 27 27 27 26 26 25 24 24 23 23 22 22 22 21 21 21
17 18 18 19 20 20 19 18 23 23 23 21 21 21 20 20 20 19 19 20 21 21 21 22 27 28 28 27 28 28 27 27 26 25 24 24 23 22 22 22 22 22 21 20
18 18 18 19 19 18 18 18 19 20 20 21 20 18 18 18 18 18 17 18 18 18 18 20 22 23 25 28 28 28 27 27 26 25 24 23 22 22 22 22 22 21 20 19
17 19 18 18 18 18 18 18 18 18 18 18 17 17 17 17 17 17 17 18 18 19 18 17 19 22 22 23 25 28 27 27 26 25 24 23 22 22 22 22 21 20 19 19
16 17 18 17 17 17 17 18 18 17 17 17 17 16 16 15 15 16 16 16 17 16 16 18 20 21 22 24 22 24 26 26 24 23 23 22 22 22 22 21 20 19 19 18
16 16 17 15 15 17 17 17 17 17 16 16 16 15 15 15 15 15 16 16 16 17 17 18 19 20 21 23 25 21 23 22 22 22 18 16 17 17 19 19 19 21 20 20
15 14 15 14 15 16 17 17 17 17 17 17 15 15 15 15 15 15 16 16 17 18 19 19 19 20 21 19 20 23 20 21 20 17 17 18 19 18 16 18 19 19 20 21
15 14 14 15 14 14 16 16 17 18 17 17 17 16 16 16 16 16 16 16 17 17 18 18 19 17 16 17 17 19 19 18 18 18 18 18 18 17 17 17 17 18 17 20
14 14 15 14 13 13 14 16 15 15 16 16 16 16 16 16 16 15 16 17 17 17 17 17 17 17 19 18 19 18 17 18 18 17 17 17 18 17 16 16 15 15 17 19
14 13 15 14 14 14 15 15 15 15 16 15 15 15 15 15 15 16 16 16 16 16 16 17 17 16 18 18 18 17 17 17 18 16 16 15 15 15 16 15 16 17 17 18
14 14 14 14 14 13 14 13 14 15 15 15 15 15 15 15 14 14 15 17 16 15 16 16 17 20 20 18 17 18 17 17 17 16 16 16 16 16 16 16 15 16 18 19
12 12 13 13 14 13 14 14 15 15 15 16 15 15 14 14 13 13 15 16 16 16 17 17 17 19 20 21 21 19 18 18 17 17 17 16 16 16 15 15 15 16 16 17
13 13 13 14 14 15 15 15 16 16 17 16 16 15 14 14 14 14 15 14 14 14 15 18 19 18 18 19 20 20 19 18 18 18 18 17 17 18 17 17 16 15 14 15
14 13 13 14 15 15 15 16 16 16 16 16 15 14 14 14 15 15 15 12 13 13 16 17 18 18 18 17 18 18 18 17 17 17 18 18 18 18 17 16 15 15 16 16
14 14 14 14 14 15 15 16 16 15 15 15 14 13 12 13 15 15 13 12 15 17 18 18 18 18 18 18 18 18 18 17 18 18 18 17 17 17 16 16 15 15 16 15
14 14 13 13 15 15 15 15 14 15 14 14 14 14 13 13 14 15 14 13 16 17 18 18 18 18 18 17 17 16 16 17 17 17 17 17 17 17 17 16 16 16 15 16
13 14 14 14 14 14 15 14 14 14 14 13 13 13 13 12 12 11 11 13 15 16 15 14 17 17 17 16 16 16 15 16 16 16 17 18 17 16 15 15 16 15 15 16
14 13 13 13 13 13 12 12 13 13 13 12 12 12 12 13 12 11 11 13 13 13 12 13 14 16 15 13 13 13 13 14 15 16 15 14 15 15 16 17 17 18 18 17
12 12 11 11 11 10 10 12 11 10 9 9 9 10 10 10 11 10 11 11 11 10 10 12 12 12 11 11 12 12 12 11 11 12 13 13 14 14 15 16 16 16 17 19
10 10 10 10 10 10 10 9 8 8 8 8 7 8 8 8 8 9 9 9 9 9 8 9 10 10 10 11 11 11 11 11 12 12 12 11 11 10 10 12 13 13 14 13
8 8 9 9 9 9 8 8 7 7 7 7 7 7 7 8 8 7 8 7 7 7 7 7 8 8 8 9 10 10 10 10 10 10 10 11 11 10 11 8 9 10 9 10

GFSNGP_925_temp_021.txt.gz
Temp
21 21 22 23 24 26 27 29 30 31 31 32 32 32 33 34 33 32 32 32 31 31 29 29 30 29 28 29 28 27 26 25 25 24 24 23 23 23 23 22 22 23 23 23
20 22 22 23 24 24 25 26 27 28 29 32 30 32 32 33 34 33 32 32 32 32 30 29 29 28 28 28 28 27 26 25 25 24 24 23 23 23 22 22 22 22 22 23
20 21 22 22 24 25 26 27 28 27 29 31 31 31 31 31 33 33 34 34 33 32 31 30 29 28 28 27 27 26 26 25 25 24 23 23 23 22 22 22 22 22 22 22
19 20 20 25 26 26 27 28 29 29 30 30 31 32 32 33 33 33 33 33 32 33 32 30 30 31 29 28 26 25 25 25 25 24 24 23 23 23 23 23 22 22 22 22
18 20 22 23 25 25 25 28 28 26 28 30 32 32 31 32 32 31 32 32 31 31 31 29 29 29 28 28 26 26 25 25 25 24 24 23 23 23 23 23 23 22 22 22
18 18 20 24 25 24 23 24 24 23 25 26 30 31 33 34 32 32 31 31 30 29 29 28 28 29 28 28 27 26 26 25 25 24 24 24 23 23 23 23 23 23 22 22
16 17 20 23 23 22 23 26 23 23 23 23 24 29 30 28 29 27 27 28 28 27 28 27 26 28 28 28 27 27 26 26 25 24 24 24 23 23 23 23 23 23 23 22
15 16 16 22 23 23 23 22 22 22 21 20 22 24 26 27 26 26 26 25 26 26 25 25 25 26 27 26 26 26 26 25 24 24 24 24 23 23 23 23 23 23 22 22
17 18 19 20 20 21 20 21 21 21 21 20 21 24 25 25 24 24 24 24 24 24 23 23 24 25 25 24 25 25 25 25 25 24 24 24 23 23 23 23 23 23 22 22
16 18 18 19 20 21 20 20 20 20 19 19 21 22 23 23 23 24 24 23 23 24 24 23 22 22 22 22 23 24 25 25 25 24 24 24 24 24 24 24 23 24 23 22
15 16 17 19 20 20 20 20 20 19 19 19 21 21 22 21 21 21 22 21 21 22 22 21 21 20 20 20 21 23 23 24 24 25 24 25 24 25 24 25 24 24 24 23
15 17 15 16 18 19 19 20 19 18 19 18 19 18 18 18 18 18 19 19 20 20 20 19 19 19 19 18 19 20 21 23 24 25 26 25 26 24 24 25 24 24 24 22
14 15 14 16 16 18 19 19 18 18 19 18 17 17 17 17 18 17 18 18 18 18 18 19 20 19 18 18 19 19 20 19 21 21 23 24 24 23 21 20 23 23 23 22
14 13 13 15 16 19 17 18 16 17 18 18 18 19 19 18 19 19 19 19 19 19 19 20 18 17 17 18 19 19 18 18 19 17 18 18 19 19 20 18 19 16 20 21
11 12 12 14 16 14 15 17 16 18 18 17 17 17 18 18 18 17 18 19 19 19 19 19 19 17 17 18 18 18 20 19 18 17 17 17 18 18 17 17 19 15 13 15
13 13 14 14 15 14 14 15 16 17 18 18 17 17 17 17 16 16 17 17 18 18 17 18 18 18 17 17 18 18 18 17 18 18 18 18 17 18 15 15 15 15 16 14
10 12 13 14 15 14 14 15 16 17 18 17 17 16 17 15 15 15 15 17 16 15 15 16 16 17 18 17 17 17 17 17 16 17 17 17 16 17 16 16 16 16 15 13
14 14 12 12 14 14 14 15 17 17 16 17 16 15 15 14 13 13 14 15 16 16 14 15 15 17 17 17 17 17 16 16 16 16 16 16 16 16 15 15 15 15 14 13
14 13 13 13 14 14 14 14 14 15 15 14 14 13 13 14 14 14 14 14 15 15 14 14 15 16 16 16 17 18 18 17 16 16 16 15 15 15 15 14 13 13 13 13
10 11 12 12 12 12 12 12 13 14 14 14 14 13 12 12 13 14 14 12 12 13 13 14 15 15 15 15 16 16 16 17 17 17 16 16 16 16 15 14 14 13 14 15
10 10 11 10 10 9 9 10 12 11 11 12 12 13 13 12 11 12 14 14 11 12 13 13 13 14 14 15 14 14 14 13 14 15 15 14 16 16 15 15 14 14 14 13
9 9 9 9 9 8 8 9 10 10 11 11 11 12 12 12 12 11 9 11 10 11 12 11 11 11 14 15 15 14 13 13 12 12 12 13 13 13 13 13 14 13 13 14
9 9 10 10 10 9 9 9 9 9 9 9 10 10 10 10 10 12 11 9 10 9 11 10 10 10 11 13 13 13 13 12 11 10 11 11 12 11 11 11 11 12 12 12
10 10 10 11 10 10 9 8 8 8 8 8 8 8 10 11 10 10 9 8 8 9 8 8 8 10 11 10 10 11 11 12 13 13 13 12 12 12 12 11 11 10 9 11
10 9 10 10 11 11 10 9 9 9 8 8 8 8 9 8 9 8 8 8 7 8 8 8 8 9 10 10 10 10 9 9 9 10 10 10 11 11 11 10 9 9 8 8
9 10 9 8 9 10 10 10 9 9 9 8 8 8 8 7 7 8 7 7 7 7 7 7 7 8 8 8 8 8 9 8 9 8 7 7 7 7 7 8 9 9 8 8
9 8 10 9 8 7 7 8 8 8 8 7 7 7 7 7 6 6 6 6 6 6 6 7 6 6 7 7 7 7 7 7 6 7 8 8 7 6 6 5 5 5 6 7

GFSNGP_925_temp_024.txt.gz
Temp
30 28 28 32 32 33 33 33 33 35 35 35 36 36 36 36 36 36 37 37 36 36 36 35 35 34 32 32 32 32 31 30 28 27 26 26 26 25 25 25 24 25 25 25
26 27 27 27 29 31 32 34 33 34 34 36 37 35 35 35 35 35 36 37 37 37 36 35 34 33 33 32 32 31 31 30 29 27 26 26 26 25 25 25 25 24 25 25
25 27 27 26 28 29 30 31 31 31 32 34 34 34 34 35 35 35 36 36 37 38 37 37 36 34 33 32 31 31 29 29 28 27 26 26 26 25 25 25 25 24 24 25
25 25 23 29 32 30 30 30 31 31 32 33 33 34 34 35 35 36 37 37 37 38 39 38 37 37 35 32 30 30 29 28 28 27 26 26 25 25 25 25 25 25 24 25
22 24 27 28 28 28 29 30 32 32 32 33 33 34 34 35 36 36 36 37 37 37 37 36 36 36 34 32 31 29 29 28 27 27 26 26 25 25 25 25 25 25 24 24
22 22 23 27 29 28 28 27 31 29 30 31 31 32 34 36 37 37 37 37 36 36 35 34 33 34 33 33 31 29 29 28 27 27 27 26 26 25 25 25 25 25 25 25
20 21 24 27 26 26 25 26 27 28 28 28 28 30 30 30 31 32 34 34 34 33 33 33 32 32 33 32 32 30 29 29 28 27 26 26 26 25 25 25 26 25 26 25
20 20 20 26 25 24 24 25 25 26 26 26 26 26 27 27 29 30 32 33 32 31 32 31 30 30 31 31 31 30 29 29 28 27 27 27 26 25 25 25 25 25 25 25
21 21 22 24 24 24 24 24 24 24 25 25 25 25 26 28 29 30 31 31 31 32 30 29 28 30 30 29 29 29 28 28 28 27 26 27 26 25 26 25 26 26 27 26
19 20 21 21 22 23 23 23 24 25 25 25 24 24 25 27 29 28 28 28 28 28 28 27 27 28 27 26 27 27 27 27 27 27 26 26 27 27 27 28 26 27 28 28
17 19 20 21 21 21 22 23 23 24 24 24 23 22 26 27 26 26 26 26 26 27 26 25 24 24 24 24 25 27 27 27 27 27 27 27 26 28 28 28 29 28 28 28
17 19 19 19 21 19 20 20 21 23 23 23 19 21 21 21 20 22 22 23 22 22 22 23 23 23 22 22 23 24 26 27 29 29 30 29 29 28 27 27 26 27 27 27
18 19 19 19 19 19 19 20 22 23 23 19 19 20 20 20 20 19 20 20 21 20 22 22 19 19 19 22 22 23 24 24 26 25 28 28 28 29 29 26 24 25 25 25
16 16 15 17 18 18 19 21 21 22 18 17 19 19 19 20 21 22 23 22 23 23 23 22 19 18 20 22 22 22 21 20 22 23 24 23 22 22 22 22 23 24 24 23
13 13 13 15 17 16 16 19 18 17 16 16 18 20 21 21 21 22 22 22 22 22 22 22 22 20 18 21 22 22 24 23 23 22 22 22 22 23 23 23 20 20 15 16
11 11 12 14 16 16 17 17 14 16 15 16 17 19 21 21 21 20 20 20 21 20 19 19 20 20 21 19 20 21 20 18 20 23 23 22 22 23 22 22 20 17 14 13
11 11 12 14 17 17 15 14 14 15 16 17 16 17 16 18 19 19 19 19 18 18 18 17 18 19 20 21 20 20 20 18 17 18 19 19 21 22 22 21 20 19 17 15
12 12 14 15 15 14 14 15 15 15 17 17 16 17 18 17 17 16 17 18 17 16 17 17 18 18 18 20 22 21 19 18 17 17 19 18 17 17 18 19 18 19 18 15
12 12 13 13 12 13 12 12 13 13 14 16 15 16 16 16 16 16 17 17 17 17 16 16 17 18 17 18 21 22 22 21 19 18 18 18 16 15 15 14 14 13 14 14
10 10 10 9 9 10 10 10 11 11 12 12 13 13 14 15 16 16 15 15 15 15 14 16 18 17 17 17 18 19 19 20 19 19 18 19 19 18 17 16 14 14 14 14
9 10 9 9 9 9 9 11 11 11 11 11 12 11 11 11 13 16 16 16 13 14 14 14 15 18 17 18 18 16 15 16 16 16 16 15 15 15 15 15 15 14 15 14
9 9 9 9 8 8 7 7 9 10 11 11 11 12 13 14 13 12 12 13 13 13 14 13 13 14 16 17 18 17 17 16 15 14 13 13 12 11 11 11 11 11 11 11
12 11 11 11 11 10 9 8 8 9 9 10 12 12 12 13 12 12 12 11 11 11 12 11 12 13 14 16 16 16 16 16 16 15 14 14 13 12 11 9 9 9 10 10
13 13 12 12 12 12 12 11 11 10 10 10 11 10 12 12 12 12 11 10 10 11 9 10 11 12 14 15 14 14 13 14 14 14 15 15 16 15 14 14 12 10 8 8
13 13 13 14 14 14 12 12 12 11 11 11 11 11 11 10 10 10 10 10 10 11 11 9 10 12 13 13 13 13 13 13 12 13 12 11 12 12 13 13 12 13 12 10
12 13 13 11 12 13 13 12 12 12 11 11 11 10 10 10 10 9 10 9 10 10 11 10 9 11 11 11 11 11 11 11 12 12 12 12 11 10 9 9 10 10 11 11
12 11 13 12 11 11 11 11 11 10 10 10 10 9 9 9 9 9 9 9 9 9 9 9 9 8 10 10 10 10 10 10 9 10 11 11 10 11 10 10 9 7 7 7

GFSNGP_925_temp_027.txt.gz
Temp
33 35 37 35 35 36 35 36 36 38 37 38 38 38 38 38 38 38 38 38 39 39 39 39 39 37 36 36 36 35 33 32 31 29 28 28 28 27 27 27 26 26 26 26
31 33 32 32 36 36 36 36 36 37 38 40 39 39 38 38 38 37 37 38 39 39 38 38 38 37 36 35 35 35 34 33 32 30 29 28 28 27 27 26 26 26 26 26
28 31 31 29 33 35 36 36 37 35 37 39 38 37 37 36 37 37 37 38 38 38 39 38 37 37 36 35 34 34 33 33 32 31 29 28 28 27 27 26 26 26 26 26
27 29 27 31 34 34 34 35 36 36 36 37 36 36 36 37 36 36 37 37 38 39 39 39 39 40 37 36 34 33 33 32 32 31 30 28 27 27 27 26 26 26 26 26
25 28 30 31 33 33 32 32 34 34 34 35 35 35 35 36 36 36 37 38 38 39 39 39 39 39 38 37 35 32 32 32 31 30 30 28 27 27 27 26 26 26 26 26
25 26 28 31 32 32 32 30 34 34 34 34 35 33 35 34 34 35 37 37 38 38 38 38 38 37 38 37 36 33 32 31 30 30 29 28 27 27 27 27 26 26 26 26
22 24 27 30 30 31 28 27 30 33 32 32 32 32 31 31 31 32 32 33 34 35 35 35 35 36 36 36 36 34 32 31 30 29 29 28 27 27 27 26 27 26 27 27
22 22 23 29 29 27 25 26 26 27 27 27 28 28 29 30 30 31 32 33 34 34 34 33 34 34 34 34 34 34 33 31 30 29 28 28 27 27 27 26 26 27 27 26
23 24 25 26 26 27 26 25 25 25 27 27 28 28 28 28 29 30 32 32 33 33 34 33 32 31 32 32 32 32 31 30 30 29 28 28 28 27 27 26 27 28 28 28
21 23 23 24 25 25 25 25 25 25 26 27 27 27 27 28 30 31 31 30 31 31 32 30 29 30 31 29 30 30 30 29 29 29 28 28 28 28 28 29 29 28 29 29
20 21 22 23 23 23 24 24 24 25 25 25 26 26 25 26 28 29 29 28 29 29 29 27 26 26 26 26 27 28 29 29 28 29 28 28 28 29 30 29 30 31 30 30
19 21 21 21 23 23 23 23 23 23 23 24 26 26 24 24 25 25 24 23 23 25 26 26 25 24 24 24 25 27 28 29 30 31 30 29 30 29 28 28 28 28 28 27
19 20 21 21 22 23 23 23 22 22 23 24 25 25 23 22 22 21 21 22 24 25 22 21 21 22 24 24 24 25 26 27 29 28 31 31 31 31 32 27 27 27 26 25
17 16 17 19 18 21 21 21 21 22 23 24 25 22 21 20 21 21 22 24 23 23 23 22 21 21 23 24 24 24 24 24 27 27 28 27 27 27 27 27 27 26 24 22
16 16 17 18 18 18 18 19 21 20 23 23 22 20 19 19 20 21 24 24 23 23 23 22 22 21 22 22 22 22 24 25 26 25 24 25 25 26 26 26 24 22 21 21
14 14 14 16 16 16 17 19 19 18 21 20 20 18 18 18 20 21 22 22 22 21 21 22 22 23 22 23 24 23 21 20 22 24 24 25 25 25 25 25 24 22 21 19
11 11 11 12 14 15 16 19 19 19 17 17 15 15 17 19 19 20 20 20 20 19 19 21 21 22 23 23 23 22 21 21 20 23 22 22 22 22 22 22 23 22 21 18
12 12 12 13 14 15 17 19 18 15 14 15 14 15 16 16 17 18 18 18 19 19 19 19 20 20 21 23 25 23 22 20 20 19 20 20 19 19 19 18 18 18 18 19
11 11 12 12 15 14 12 13 12 11 11 13 13 13 13 13 14 15 15 16 17 18 18 19 19 19 20 21 24 24 22 21 20 19 20 20 20 19 18 16 15 15 15 16
10 9 9 10 10 10 11 11 11 10 10 9 10 11 11 12 12 12 13 14 16 15 16 18 19 20 19 19 20 21 20 19 19 18 17 18 18 18 18 17 15 14 13 14
9 9 9 9 8 9 9 9 10 9 8 9 10 10 10 10 10 11 11 11 11 15 16 16 16 19 20 20 20 19 19 18 18 18 17 16 16 15 14 14 13 11 11 11
12 10 9 8 8 8 9 9 10 10 10 10 10 10 11 11 11 11 11 11 11 13 14 15 15 16 18 19 19 19 19 19 18 18 17 16 14 13 12 11 11 10 10 9
15 14 13 12 11 10 10 11 10 10 10 12 12 12 12 12 13 13 13 12 11 11 13 13 14 16 17 18 18 17 18 18 18 18 16 16 15 14 12 11 10 9 8 8
14 15 15 15 14 13 13 12 12 12 12 12 11 11 12 13 12 12 12 11 12 12 11 11 12 14 16 16 16 16 16 16 15 15 15 15 16 16 16 16 16 15 12 10
14 14 14 15 15 15 15 14 14 14 13 13 13 13 12 12 11 11 11 11 11 12 12 11 12 13 14 14 15 15 14 14 14 15 15 14 14 14 13 13 12 12 13 13
13 15 14 14 14 14 14 14 14 13 13 13 12 12 12 12 12 12 12 11 11 11 11 12 11 12 12 12 13 13 13 12 13 14 14 14 14 14 13 12 11 11 11 11
15 13 15 15 14 13 13 13 13 12 12 12 12 12 11 11 11 11 11 12 12 11 11 12 11 11 12 12 12 12 12 12 11 12 13 13 13 12 12 12 12 11 10 8

GFSNGP_925_temp_030.txt.gz
Temp
33 35 37 36 35 36 36 37 35 37 38 37 38 38 39 39 39 40 40 40 39 40 37 36 36 35 35 35 34 33 32 30 29 28 28 27 27 27 26 26 26 26 26 26
30 33 34 34 36 36 36 37 37 38 39 39 38 38 38 37 37 37 37 39 39 39 38 38 37 36 35 35 35 34 33 32 30 29 28 28 27 27 27 26 26 26 26 26
27 30 32 33 35 36 37 37 37 37 38 39 37 37 37 37 37 37 37 38 38 38 38 37 38 37 35 35 35 35 33 32 32 30 29 28 28 27 27 27 26 26 26 26
26 28 27 33 36 36 37 37 38 38 39 39 38 38 37 37 37 37 37 37 37 38 38 38 38 38 37 35 34 34 34 33 32 31 29 29 28 28 27 27 27 26 26 26
25 27 30 32 34 34 34 36 38 38 38 37 37 37 36 36 37 36 37 36 37 38 38 38 38 38 36 35 34 33 33 32 32 31 30 29 28 27 27 27 27 26 26 26
24 26 27 31 34 35 36 32 32 35 35 36 36 33 32 31 32 32 33 33 33 34 35 38 38 39 38 35 34 32 32 32 32 31 30 30 29 28 27 27 27 26 26 26
23 24 28 26 31 34 31 25 27 30 32 33 32 30 30 31 30 31 32 33 33 33 33 34 33 34 34 36 35 34 32 32 31 31 30 30 29 28 27 27 27 27 27 26
23 23 23 26 28 26 25 25 26 26 27 28 28 29 29 29 29 29 31 32 33 33 33 34 33 33 33 33 34 34 35 32 31 31 29 30 29 28 27 27 27 26 26 26
23 24 25 26 26 26 26 25 25 25 26 27 28 28 28 28 28 29 31 32 32 32 33 33 33 31 31 31 32 33 33 32 31 30 29 29 28 28 27 27 27 26 27 27
21 23 23 24 26 26 25 25 24 25 25 26 26 26 27 27 26 27 29 29 29 30 31 29 29 29 30 30 31 31 31 31 30 29 28 28 28 27 27 27 27 27 27 28
20 22 23 23 24 24 24 24 24 25 25 25 24 25 25 26 25 25 26 25 26 28 29 28 26 26 26 26 27 29 30 29 29 29 29 28 28 28 28 28 28 29 28 28
19 21 20 21 22 24 24 23 24 24 24 24 24 24 24 25 24 23 24 24 25 26 27 25 24 23 25 25 26 28 29 29 29 29 29 28 28 28 28 28 27 27 26 25
15 15 17 19 21 22 22 23 24 24 24 23 23 23 24 24 23 22 22 23 24 24 22 22 23 24 24 25 25 26 27 28 28 30 30 29 29 29 29 23 25 25 24 23
15 15 15 17 18 20 21 21 21 21 22 23 23 24 24 24 22 22 23 23 23 22 22 22 22 23 24 24 24 25 25 27 28 28 28 27 27 27 28 27 27 24 22 22
10 12 14 16 17 19 20 20 20 20 21 22 23 23 23 23 21 20 21 21 22 22 22 22 22 23 23 23 22 22 26 25 26 25 25 26 26 27 26 26 24 23 22 21
10 10 12 14 16 18 18 19 19 19 20 21 21 20 21 21 19 18 20 20 20 19 21 22 22 23 23 23 23 22 22 23 24 25 25 25 26 26 25 25 25 22 22 19
10 12 12 14 16 17 18 19 18 18 20 20 19 18 18 19 18 17 17 17 18 18 18 20 20 21 23 23 23 23 22 21 23 22 22 21 22 22 21 21 21 20 20 18
13 14 14 14 14 15 16 16 17 17 18 17 16 14 16 15 16 14 17 16 16 17 19 20 20 20 21 23 23 22 21 21 21 21 20 19 19 18 17 16 16 16 16 16
9 10 11 11 12 12 13 12 11 11 11 10 11 11 11 11 11 12 12 13 14 15 15 19 19 20 20 22 21 21 21 19 19 19 18 18 18 18 16 15 13 13 13 13
9 9 9 9 9 10 10 10 10 9 9 9 9 8 9 9 9 9 10 10 10 12 13 15 17 20 20 21 21 20 18 19 18 17 17 18 17 16 16 14 14 12 11 11
9 9 9 8 8 8 9 9 9 8 8 8 8 8 7 7 7 8 8 8 8 9 11 14 16 17 19 20 20 20 20 19 18 18 17 16 16 15 15 13 13 12 11 10
11 10 9 9 9 8 7 7 8 8 8 8 8 8 8 8 8 7 7 7 8 9 10 11 14 16 17 17 17 17 18 18 18 18 17 16 16 14 14 12 12 11 10 9
14 12 12 11 9 9 8 8 7 7 7 8 9 10 9 10 11 10 7 9 10 11 11 11 14 16 17 17 17 16 16 17 16 16 16 16 16 15 14 14 14 12 12 10
14 14 14 13 13 12 12 12 12 11 10 10 9 10 11 11 11 12 12 12 12 12 12 13 14 15 15 16 16 15 15 16 16 16 15 15 15 15 14 14 14 13 12 11
14 14 14 14 15 14 14 14 13 13 13 13 13 12 12 12 12 11 12 11 12 13 12 12 13 14 14 14 14 14 14 14 14 15 15 15 14 14 13 13 12 11 11 11
14 15 15 14 14 14 14 14 13 12 13 13 13 12 13 12 12 12 12 12 12 13 12 12 12 13 13 13 13 13 12 12 13 14 14 14 13 13 13 12 12 11 10 9
15 14 15 15 14 14 13 13 13 12 12 13 12 12 12 12 12 12 12 13 13 13 13 13 12 12 12 12 12 12 12 12 12 12 12 12 12 12 12 12 11 11 10 8

GFSNGP_925_temp_033.txt.gz
Temp
25 29 31 32 33 33 32 31 31 31 32 34 36 32 32 32 33 33 32 34 35 35 34 33 32 32 31 30 30 29 27 26 26 25 25 25 24 24 24 25 25 26 26 27
24 29 30 31 34 34 34 33 32 32 32 32 32 30 31 31 31 31 31 31 32 34 34 34 33 32 31 31 31 30 29 27 27 26 26 25 25 25 24 24 24 25 25 25
23 27 29 29 31 34 34 34 33 31 32 33 32 32 31 30 31 31 31 31 31 31 30 30 33 33 32 32 31 31 30 29 28 27 26 26 25 25 25 25 24 24 25 25
20 24 25 28 31 33 34 34 34 34 33 31 31 29 28 29 30 31 31 30 30 30 31 35 34 32 33 32 31 31 30 29 29 27 26 26 26 25 25 25 25 25 24 25
20 23 27 29 28 28 32 25 25 27 33 32 30 28 27 28 28 27 27 27 27 29 30 33 35 36 33 32 31 30 31 30 29 28 27 27 26 26 26 26 25 25 25 25
20 21 25 21 24 27 29 22 25 26 28 31 29 25 24 26 27 27 26 27 28 31 32 32 32 34 33 32 32 31 31 30 30 30 29 27 27 26 26 26 26 26 26 25
20 21 20 23 24 24 25 21 24 24 25 25 25 24 24 25 25 25 26 27 31 31 30 32 33 33 31 31 30 33 33 33 32 32 30 29 28 27 26 26 26 26 25 25
20 20 18 21 23 21 21 22 22 22 22 23 24 24 24 23 24 24 25 27 28 27 28 31 33 33 30 30 32 33 32 31 32 32 31 30 29 27 26 26 26 26 25 25
18 17 19 18 19 22 22 22 21 20 22 22 22 22 23 22 22 23 24 24 25 25 26 27 27 28 28 28 30 31 32 32 31 31 31 30 29 28 26 26 26 25 25 25
17 19 19 20 22 22 22 22 21 21 21 21 20 21 21 21 21 22 22 23 23 24 24 25 26 26 26 26 28 29 31 30 30 30 29 29 29 28 27 26 25 25 25 25
16 17 17 18 17 18 20 21 22 22 21 21 20 19 19 19 20 20 20 21 22 22 23 23 24 24 25 25 26 27 29 29 29 29 28 28 28 27 27 27 27 26 26 26
12 14 13 14 15 16 17 19 19 20 21 21 20 19 19 18 19 19 19 21 20 21 22 23 24 24 24 24 25 26 27 28 28 28 28 28 28 24 26 25 25 26 25 25
10 12 12 13 14 16 17 18 19 18 19 18 19 19 19 18 19 21 21 21 21 21 21 22 23 23 24 24 24 25 26 27 28 28 28 27 27 22 17 20 21 22 21 21
9 9 10 12 13 15 16 16 18 19 19 19 19 20 19 18 20 19 19 19 20 21 22 22 22 23 23 24 23 24 25 26 26 26 26 26 26 23 20 20 20 18 20 20
11 10 10 10 11 13 14 15 17 17 18 17 19 18 18 17 17 18 19 19 20 22 22 22 22 23 23 23 23 23 24 24 25 25 26 25 26 25 24 22 21 20 20 20
10 11 11 10 11 13 14 14 16 16 17 17 16 16 18 18 17 18 18 19 20 20 20 21 22 22 23 22 22 22 23 23 23 22 21 21 21 20 20 20 20 18 17 16
11 10 10 11 11 13 13 15 15 16 16 15 15 16 17 17 17 17 17 16 16 15 18 20 20 22 23 23 22 21 21 20 20 19 18 17 16 16 16 15 16 15 15 15
10 10 10 11 12 13 14 14 13 13 12 12 12 14 14 14 14 11 12 12 12 14 13 16 18 21 22 22 20 20 19 19 18 18 17 16 15 14 14 13 13 13 13 13
9 9 9 8 10 12 12 12 10 9 9 9 10 10 10 10 10 9 9 10 9 10 10 14 17 18 19 19 19 18 18 18 18 17 17 16 15 14 13 12 11 11 11 11
8 8 8 8 8 8 9 9 9 8 8 8 8 8 8 8 8 9 8 8 7 7 10 10 14 16 17 17 17 17 17 17 16 16 16 15 14 14 13 12 11 10 9 9
9 8 8 7 8 7 7 7 8 7 7 8 7 7 7 6 6 7 7 7 6 8 9 11 11 15 16 17 18 18 17 16 16 15 15 14 13 12 12 11 10 9 8 8
9 9 8 7 7 7 6 6 6 6 7 6 6 6 6 6 6 6 5 6 6 7 8 9 10 12 13 14 15 15 15 15 16 15 14 13 13 12 11 11 10 9 8 8
11 10 9 8 8 7 7 7 7 7 6 6 6 6 6 6 6 6 6 7 7 9 10 11 11 11 11 11 11 12 13 14 15 15 14 14 13 13 12 11 11 11 10 9
13 12 12 11 11 11 10 9 8 8 7 8 9 8 8 7 7 8 8 9 9 10 11 13 13 13 13 12 11 11 12 12 13 13 13 13 13 12 11 11 11 10 9 8
13 14 13 13 12 11 11 12 11 11 12 12 10 9 9 9 10 10 9 9 9 10 11 13 13 13 13 13 12 13 13 13 14 13 13 13 13 12 11 11 10 9 8 8
14 13 13 13 13 13 12 12 11 11 12 12 12 11 11 11 11 12 12 12 11 11 12 12 13 12 13 12 12 12 12 12 12 11 11 11 11 12 11 10 9 9 8 7
14 13 13 13 13 13 12 12 12 11 12 11 11 11 12 12 12 12 12 12 12 12 12 12 12 12 12 12 11 11 11 11 10 10 10 9 9 9 10 9 9 8 7 7

GFSNGP_925_temp_036.txt.gz
Temp
16 19 21 22 29 30 28 29 29 29 30 29 29 28 29 29 29 31 33 33 33 31 31 30 30 30 28 28 26 25 24 24 23 24 23 23 23 23 24 23 24 25 25 26
16 22 24 26 29 29 31 30 28 27 29 29 31 27 28 28 29 30 32 33 33 32 31 30 30 30 29 28 27 26 25 24 24 24 23 23 23 23 23 23 23 24 25 25
15 20 27 27 25 28 31 30 31 27 28 30 28 25 24 28 29 27 30 33 32 32 32 31 31 30 29 29 28 26 25 25 25 24 24 23 24 23 23 23 23 23 23 24
14 19 23 23 23 24 24 23 23 23 25 26 25 25 24 25 26 27 28 27 27 28 29 31 31 31 30 29 29 28 27 26 25 25 24 24 24 24 23 23 23 23 23 23
16 19 24 21 20 22 22 21 21 22 27 27 26 26 24 24 24 24 24 24 24 26 28 31 32 31 31 30 29 28 28 28 26 26 25 24 24 24 24 24 24 24 23 23
15 18 19 17 20 24 23 19 21 21 23 25 27 22 21 22 23 23 23 24 24 28 28 30 30 31 31 30 29 29 28 28 28 27 26 25 25 25 24 24 24 24 24 24
18 18 17 18 19 24 19 19 21 20 21 20 21 21 21 22 21 22 23 23 24 25 24 28 30 30 29 29 29 30 29 29 28 28 27 26 26 25 25 25 25 25 24 24
16 15 15 16 17 16 18 20 20 20 19 19 20 20 20 21 21 21 21 22 23 23 23 24 27 29 26 26 28 30 29 29 28 28 27 27 26 26 25 25 25 25 25 24
12 13 14 14 13 16 17 18 19 19 18 19 19 19 19 19 20 20 20 21 21 22 22 23 24 25 24 24 27 29 29 29 30 29 28 28 27 26 25 25 25 25 24 24
14 13 14 13 13 14 16 16 19 19 19 18 18 18 18 18 18 19 19 19 20 21 21 21 23 24 24 25 26 26 27 29 29 29 28 28 27 26 25 24 24 24 24 23
12 12 13 14 14 13 14 16 18 18 18 18 17 17 17 16 17 18 18 18 19 19 20 21 23 24 24 24 24 25 26 27 28 28 27 26 25 25 25 26 26 24 24 24
9 10 8 10 13 13 13 14 16 16 17 16 16 16 16 16 16 17 17 18 18 19 20 21 23 23 24 24 24 24 24 25 26 26 26 26 24 21 22 24 25 25 25 25
9 10 10 9 10 11 12 14 16 15 16 16 17 15 16 15 16 17 17 17 17 18 20 21 21 22 22 24 23 23 23 24 25 26 26 24 22 20 18 19 21 21 21 21
11 10 10 10 9 12 13 15 15 15 17 17 17 17 16 16 16 16 16 17 18 19 20 21 21 22 22 23 23 23 24 24 24 25 26 24 22 20 19 18 17 18 19 19
10 10 10 10 11 11 11 12 14 14 14 16 17 16 16 15 14 15 18 18 18 19 20 21 21 22 22 22 23 23 23 22 22 22 21 21 19 19 19 18 16 16 17 18
10 11 10 11 11 10 10 11 12 12 14 14 15 15 15 16 16 16 15 16 16 15 16 19 20 20 22 22 21 21 21 22 22 20 19 17 18 17 16 15 15 14 14 15
9 9 9 10 10 10 10 11 11 12 12 11 12 13 14 15 14 13 13 13 13 14 15 15 17 20 20 21 21 20 19 19 18 17 16 15 14 14 14 14 14 13 12 13
8 8 8 9 11 10 11 10 9 9 10 11 11 11 11 12 10 10 11 12 12 13 14 14 17 19 20 20 20 18 17 16 16 15 14 13 13 13 12 12 12 11 11 12
8 8 8 8 8 9 9 8 8 8 8 8 9 9 9 8 8 8 8 9 8 9 11 14 16 18 18 18 19 17 16 16 15 14 13 13 12 11 11 10 10 10 10 10
8 8 8 7 7 7 7 7 7 7 7 7 7 7 7 6 8 7 7 7 6 7 10 12 15 15 16 16 16 16 15 15 14 13 12 11 10 10 9 9 9 9 8 8
8 7 7 7 7 6 6 6 6 6 6 6 6 6 6 6 6 7 7 7 6 7 9 11 12 13 14 14 14 15 15 14 13 12 11 10 10 9 8 8 8 8 8 7
8 7 7 7 6 6 6 5 5 6 6 5 5 5 5 5 5 5 5 5 7 7 9 9 9 12 13 12 12 13 13 13 12 12 11 10 10 9 9 8 7 7 7 6
9 8 8 7 7 6 6 6 5 5 5 5 4 4 4 5 4 5 5 6 6 7 8 8 10 11 11 11 11 10 11 12 12 12 11 11 10 10 9 9 8 8 7 7
10 10 10 10 8 8 8 8 8 6 6 6 5 5 4 3 4 5 5 6 6 7 8 8 9 10 10 9 9 10 11 11 12 11 11 11 10 10 9 8 8 7 7 7
12 11 11 10 10 9 10 10 11 10 9 8 7 7 6 6 5 6 6 6 7 8 8 9 9 9 10 11 10 10 10 10 10 11 11 10 10 10 9 9 8 7 7 7
12 11 11 11 11 11 11 11 10 10 11 10 9 9 9 9 9 9 8 8 9 9 8 9 9 10 10 10 10 10 9 9 9 9 9 9 9 9 8 8 8 7 7 6
12 12 12 12 11 12 12 11 10 10 10 10 10 10 10 10 10 11 11 10 11 10 10 10 10 10 9 9 9 9 9 9 9 9 8 8 8 8 7 7 7 7 6 6

GFSNGP_925_temp_042.txt.gz
Temp
11 11 11 12 14 16 17 20 24 25 25 26 26 25 24 24 25 26 25 26 26 28 27 27 28 27 25 25 24 24 23 23 23 23 22 23 23 23 24 24 25 25 25 25
9 12 12 13 16 17 17 20 23 25 24 23 25 24 22 21 21 21 24 27 27 28 28 27 28 27 25 25 24 24 24 23 23 23 22 23 23 23 23 23 24 24 24 24
9 14 15 15 17 18 19 18 19 23 22 19 22 20 19 20 20 20 21 25 28 28 28 28 28 28 26 25 24 24 24 23 23 22 22 22 22 22 22 22 23 22 23 23
9 12 17 16 17 20 19 18 18 18 18 20 21 20 20 20 20 20 20 24 28 29 29 29 29 28 27 25 24 24 23 23 23 22 22 22 21 22 22 22 22 22 22 22
9 12 18 18 16 15 15 18 17 18 18 19 21 22 21 20 20 21 21 20 25 29 29 29 29 28 26 25 24 24 23 23 23 22 22 22 21 21 21 21 21 22 22 22
10 12 17 14 15 15 16 16 17 16 19 18 20 21 21 19 20 20 21 20 24 27 29 28 28 27 25 25 24 23 24 23 23 22 22 22 22 22 22 22 21 21 21 22
10 12 15 13 14 15 17 15 15 16 18 18 18 17 17 19 19 20 21 21 21 25 25 26 28 27 25 25 25 24 24 24 24 23 23 23 22 22 22 22 22 21 21 22
12 15 16 13 14 14 13 15 14 15 16 18 18 18 17 18 19 19 19 20 21 20 20 23 26 26 25 25 25 26 25 24 24 23 23 23 23 23 22 22 22 22 21 22
10 11 10 12 11 12 13 13 13 13 15 17 17 17 17 16 17 18 18 18 19 20 20 20 24 25 24 23 25 27 26 25 25 24 24 24 23 23 22 22 22 22 22 22
10 10 10 12 12 12 12 12 13 13 14 16 17 17 17 16 16 16 17 17 17 18 19 19 21 22 23 23 24 26 26 26 26 25 24 24 24 24 23 23 22 23 22 22
9 11 11 13 11 11 12 12 12 13 13 14 16 16 16 15 14 15 16 16 16 17 18 18 20 21 22 23 24 24 24 25 25 24 24 24 24 23 23 23 23 23 23 23
10 10 9 9 10 11 11 11 11 11 12 13 15 15 15 15 14 14 14 15 16 17 17 18 19 20 21 22 23 23 23 23 23 23 22 22 22 20 21 22 23 23 23 24
9 9 10 10 10 11 11 11 11 11 11 12 13 15 15 15 15 15 15 15 15 16 17 18 19 19 20 21 22 22 22 22 22 22 20 19 18 18 16 17 21 22 23 23
9 9 10 10 9 9 10 11 11 11 10 11 13 14 15 15 16 15 15 15 17 17 17 17 18 19 19 20 21 22 22 22 22 22 21 19 18 17 17 17 16 16 18 19
8 8 8 9 10 9 10 10 10 11 11 11 12 13 14 14 14 14 15 16 17 18 17 16 16 18 19 19 20 21 21 20 20 21 20 19 18 18 17 16 15 14 16 17
8 8 8 9 9 10 10 10 10 10 10 10 10 11 12 13 13 14 14 14 12 12 14 14 15 16 18 18 19 20 19 18 18 18 17 17 16 16 15 15 14 14 14 15
7 7 7 8 8 8 8 9 10 10 10 11 10 10 10 10 11 10 10 11 11 12 13 12 13 16 17 17 18 19 19 17 17 17 16 16 15 15 14 13 13 12 13 14
6 7 7 7 7 7 7 7 7 7 7 8 8 8 8 8 8 8 8 8 9 10 12 11 12 13 16 17 17 18 18 16 15 15 15 14 14 13 12 12 11 10 10 11
6 6 6 6 6 6 6 6 5 5 5 6 6 6 6 6 6 7 7 7 7 7 9 9 11 13 16 16 16 17 17 14 14 14 13 12 12 11 11 10 10 9 9 9
6 6 6 5 6 6 6 5 5 5 4 4 5 5 5 5 5 5 5 7 6 6 7 9 10 12 15 15 16 15 14 13 12 11 11 10 10 9 9 8 8 7 7 7
7 6 6 5 5 5 5 5 5 5 4 4 4 4 4 4 4 5 5 5 5 6 7 8 10 12 13 14 15 14 13 11 10 10 9 8 7 7 7 6 6 6 6 7
7 7 7 6 5 5 6 5 5 5 5 4 4 4 4 4 4 4 5 5 5 5 5 6 8 10 12 12 13 12 11 10 9 8 7 7 6 6 5 6 5 6 6 6
7 7 7 7 7 6 6 6 6 5 5 5 5 4 3 3 4 4 4 4 5 5 5 5 6 10 10 10 10 9 9 8 8 8 7 6 6 6 6 6 6 6 6 6
8 8 8 8 8 7 6 8 6 6 6 5 5 4 4 4 4 4 3 4 4 4 5 5 5 7 8 8 8 8 8 7 7 6 7 7 7 6 6 6 6 6 6 6
9 9 9 8 7 7 7 8 8 7 6 6 6 6 5 4 4 4 4 4 4 4 4 5 4 4 4 5 6 7 6 6 6 6 5 5 6 6 6 6 6 6 6 6
9 9 7 8 9 9 8 8 7 7 7 6 6 6 6 6 5 5 5 4 4 4 4 4 4 4 4 4 5 5 5 5 5 5 5 5 5 6 6 6 5 5 5 5
9 9 8 8 8 8 9 9 8 7 7 7 6 7 7 7 6 6 6 5 5 4 4 4 5 5 5 6 5 5 5 5 5 5 5 5 4 5 5 5 5 5 4 4

GFSNGP_925_temp_045.txt.gz
Temp
13 14 14 14 15 16 17 22 26 27 28 29 31 31 32 31 31 30 30 30 30 30 29 29 29 27 27 27 26 26 25 24 24 23 23 23 23 22 22 23 24 25 24 23
12 15 14 14 16 16 17 19 23 26 28 28 28 29 29 30 27 28 28 29 30 30 30 29 29 27 26 26 26 25 24 24 24 23 23 23 22 22 22 22 23 23 23 23
13 15 15 15 17 18 19 22 24 26 28 23 25 26 24 24 24 24 25 26 26 29 30 30 29 28 26 26 25 25 24 24 24 23 23 22 22 22 22 22 22 22 22 23
12 12 13 19 21 21 21 19 21 24 22 23 24 24 23 21 21 22 23 24 25 26 29 29 29 29 27 26 25 24 24 24 24 23 23 22 22 22 22 23 22 22 22 22
10 12 13 18 19 21 22 18 18 19 21 22 23 24 25 21 19 20 21 22 24 25 28 30 29 29 27 26 25 25 24 24 24 23 23 23 22 22 22 22 22 22 23 22
10 11 14 15 16 17 18 19 16 18 19 21 24 26 23 18 18 20 21 24 25 26 30 29 29 28 27 26 25 25 25 24 24 23 23 23 23 22 22 22 23 23 23 23
10 10 10 13 15 17 19 17 15 16 16 19 19 18 17 18 18 19 20 23 25 29 29 28 28 28 26 26 26 26 25 25 24 23 23 23 23 23 23 23 23 22 23 23
10 10 11 11 15 16 15 14 14 14 15 18 18 17 17 17 17 18 19 21 24 26 28 27 27 27 26 26 26 25 25 24 23 23 24 24 23 23 23 23 23 23 23 23
9 10 8 11 13 14 14 13 13 13 14 16 17 17 17 16 17 17 18 20 22 24 23 25 26 26 26 25 24 24 24 24 24 23 23 24 23 23 23 23 24 24 24 25
9 9 10 12 12 13 13 12 13 13 14 15 16 17 17 16 16 17 17 18 20 22 22 22 22 23 23 23 24 24 24 24 24 24 23 24 24 24 24 25 25 25 25 25
9 9 10 11 11 11 12 12 12 12 13 13 14 15 17 17 17 16 16 17 18 19 21 21 21 21 21 21 23 24 24 24 24 24 23 24 25 25 25 25 26 26 26 26
9 9 9 10 11 11 11 11 12 12 12 12 13 14 16 17 17 17 17 17 17 18 19 20 20 20 19 19 21 23 25 25 25 26 24 25 21 19 22 23 23 24 24 25
8 8 9 10 10 10 10 11 11 11 11 11 12 14 16 17 16 17 17 17 16 17 17 18 19 18 18 19 19 21 22 22 22 21 21 23 22 22 18 18 20 23 23 23
8 8 9 10 10 10 11 11 11 11 12 12 12 13 14 15 16 16 16 16 16 16 16 16 17 17 16 18 19 20 21 22 24 21 21 20 20 22 21 19 19 17 20 22
9 8 8 9 11 10 10 11 11 11 11 12 11 11 12 15 15 14 14 14 15 15 14 14 15 15 14 16 18 19 20 21 22 20 19 20 21 21 22 20 18 14 15 16
9 8 8 8 8 8 8 9 10 11 11 11 11 10 11 11 13 12 11 12 13 13 13 12 13 12 13 14 17 20 19 17 18 17 18 19 20 20 20 20 18 18 16 15
8 7 7 7 7 7 7 7 7 8 9 8 8 8 8 9 9 10 10 10 11 12 12 11 10 10 11 13 15 19 19 17 17 18 17 17 17 17 16 15 14 13 14 14
9 9 7 7 7 7 7 6 6 6 7 7 7 7 7 7 7 7 8 9 10 10 11 9 9 10 12 13 15 17 18 17 17 17 16 16 15 14 13 12 12 11 11 12
8 8 8 8 8 8 7 6 6 6 6 6 6 6 5 5 6 6 6 7 6 7 8 8 9 10 12 13 14 16 17 16 15 15 14 13 14 13 11 11 10 10 10 9
9 8 8 8 7 7 7 7 7 6 5 6 6 5 5 5 5 5 5 6 5 6 6 7 8 10 11 13 14 15 16 16 14 13 13 12 12 11 9 9 9 8 8 8
9 9 8 8 8 7 7 7 7 6 6 5 5 5 5 4 5 5 5 5 5 5 5 6 7 9 9 11 14 14 14 14 12 11 10 9 8 8 7 7 7 6 6 6
10 9 9 9 9 8 8 7 7 7 7 6 5 4 4 4 4 4 4 4 4 5 5 5 6 8 11 12 12 13 13 12 11 10 9 8 7 6 6 6 6 6 6 6
10 10 10 10 10 9 9 8 8 7 7 6 6 5 4 4 4 4 4 4 4 4 5 5 5 8 10 11 11 11 10 9 8 7 7 6 6 6 6 6 6 6 6 6
10 11 11 10 10 10 10 9 9 8 7 7 6 6 5 5 5 4 4 4 4 4 4 5 4 5 8 9 8 7 6 5 5 4 5 5 5 5 5 5 5 5 5 6
11 10 10 10 11 11 10 9 10 9 8 8 7 7 6 6 5 5 4 4 3 4 4 4 4 4 5 6 5 5 5 4 4 4 4 4 4 4 5 5 5 5 5 5
11 11 10 9 10 10 10 10 10 10 9 10 9 8 8 7 7 6 5 4 3 3 3 3 4 4 4 4 4 4 4 4 4 4 4 4 4 4 4 4 4 4 4 4
10 10 10 10 10 10 9 9 10 10 9 9 10 9 8 8 8 7 7 5 4 3 3 3 3 4 5 4 4 4 4 4 4 4 4 4 4 4 3 4 3 4 3 3

GFSNGP_925_temp_048.txt.gz
Temp
18 18 19 19 20 21 21 22 23 27 29 31 33 33 34 35 35 34 34 35 35 35 35 34 32 32 30 31 30 31 29 29 28 26 26 26 25 25 25 25 25 25 25 25
17 18 18 18 20 21 21 21 22 23 25 29 33 33 33 34 35 34 33 34 34 34 34 34 32 31 30 30 30 30 30 29 28 26 26 25 25 25 24 25 25 25 25 25
15 18 19 18 19 20 21 22 22 22 26 30 32 31 33 33 33 32 31 31 32 33 34 34 32 31 30 29 29 29 29 28 28 26 25 25 25 25 24 24 25 25 25 25
15 17 15 19 21 22 22 23 23 24 26 28 30 30 29 27 27 27 28 28 29 31 32 32 33 32 31 30 29 28 28 27 27 26 25 25 25 25 24 25 25 25 25 25
12 14 16 17 19 21 22 23 23 25 26 29 30 30 27 25 24 24 25 25 26 27 29 30 31 33 31 30 28 28 27 27 26 26 25 25 25 25 25 25 25 25 25 25
13 12 13 17 11 12 17 20 22 23 27 29 29 29 30 22 22 22 23 24 24 26 28 29 29 32 32 30 29 28 27 27 26 26 25 25 25 25 25 25 25 26 26 25
12 12 14 15 12 11 13 20 20 20 19 22 28 22 19 19 19 20 20 21 24 27 28 29 29 32 32 30 29 28 27 27 26 26 25 25 25 25 25 25 26 25 26 26
11 11 11 11 9 11 15 15 14 15 18 19 18 18 18 18 17 17 18 22 28 30 30 31 31 31 31 29 29 28 27 27 26 26 26 26 25 25 25 25 25 25 25 26
9 11 10 8 8 11 13 12 12 14 17 18 18 17 17 17 16 17 17 19 24 29 30 30 30 30 29 28 27 27 27 27 26 26 26 27 25 25 25 25 27 26 27 27
8 9 7 9 10 11 11 11 12 14 14 16 17 18 17 17 16 16 16 17 19 22 24 27 28 28 28 27 27 27 27 27 26 26 26 26 26 26 27 27 27 29 29 29
8 7 8 10 10 10 11 11 12 13 13 13 16 17 17 16 16 16 15 15 16 18 21 21 22 22 23 26 26 26 27 27 27 27 25 26 27 26 28 28 29 29 30 30
9 8 8 8 10 10 11 11 11 12 12 14 14 15 16 16 16 16 15 15 16 16 18 20 20 21 22 23 24 26 26 27 28 28 27 27 27 24 23 21 24 27 27 29
8 8 9 10 10 10 11 11 11 12 12 12 12 14 15 17 16 16 16 16 16 16 17 18 18 18 19 22 23 24 26 27 28 28 27 24 23 22 23 23 22 24 25 26
8 8 9 9 8 9 11 12 11 11 12 12 14 14 15 16 16 17 16 16 17 16 16 17 17 16 17 18 21 22 23 23 25 26 24 24 22 21 20 20 22 23 22 23
9 9 8 8 8 8 8 9 10 10 11 12 11 12 13 15 15 15 15 16 16 16 16 15 16 15 16 17 17 22 23 24 25 23 23 22 24 25 26 21 23 17 17 19
11 10 10 9 8 8 8 8 8 8 9 9 10 9 10 13 13 13 14 14 15 15 15 14 14 14 15 17 17 22 21 18 19 20 20 21 23 23 23 23 20 17 17 16
11 10 10 9 9 8 8 7 8 8 8 8 8 8 8 9 11 12 12 12 13 13 14 12 13 12 15 16 17 17 22 19 18 18 19 20 23 23 23 21 19 16 15 17
12 12 11 10 10 10 10 8 7 8 8 8 8 8 8 7 8 8 9 10 10 11 10 11 11 11 15 15 16 17 20 21 20 19 17 17 17 17 15 15 14 14 13 15
12 12 11 11 11 11 11 10 8 7 7 7 7 7 6 6 6 7 8 7 8 8 8 9 9 12 13 14 14 18 18 20 19 20 17 15 14 13 13 13 13 12 14 15
12 12 12 11 11 11 11 10 10 8 7 6 6 6 6 6 7 7 8 7 6 6 7 7 8 11 12 14 14 16 17 17 19 18 17 17 16 13 11 11 11 11 11 12
13 12 12 12 12 12 11 11 10 10 8 7 6 5 5 5 6 6 6 6 6 6 6 7 7 9 11 11 15 18 15 15 15 14 14 13 12 11 10 9 9 9 8 8
13 13 12 12 13 12 12 11 10 10 9 8 7 7 6 5 5 5 5 5 5 5 6 6 6 7 9 11 15 17 17 15 14 11 10 11 9 8 7 7 7 7 7 7
14 14 13 13 13 13 12 12 12 11 10 9 8 8 6 5 4 4 5 4 4 4 5 5 6 9 10 11 11 11 10 9 8 8 7 7 6 6 6 5 5 5 5 5
14 14 13 13 13 13 13 12 12 11 11 10 9 8 8 7 6 4 4 4 4 4 5 5 5 6 6 6 5 5 5 5 5 4 4 4 4 4 5 5 4 5 4 4
14 13 13 13 14 14 13 12 13 12 12 12 11 10 8 7 7 6 4 3 3 4 4 4 4 4 4 4 4 3 3 2 2 2 2 2 2 2 3 3 3 3 4 4
14 14 13 12 13 13 13 13 13 12 13 13 12 11 10 9 7 7 6 4 3 4 4 4 4 4 3 3 3 3 3 2 2 2 2 2 2 2 3 3 3 3 4 3
13 12 13 13 13 12 12 12 13 13 12 12 12 12 11 10 8 8 7 6 5 4 4 4 4 4 3 3 3 2 2 2 2 2 2 2 2 2 2 2 2 2 2 2